Wind_Speed
33 33 33 33 33 34 33 33 33 32 31 31 32 32 33 33 33 33 33 34 34 35 35 35 34 34 34 34 35 35 34 35 35 36 35 35 36 36 37 38 38 38 39
34 35 36 35 35 36 35 35 35 34 33 33 34 34 34 34 35 35 35 35 36 36 37 37 36 35 35 36 36 35 35 35 36 37 38 38 38 38 37 38 39 39 39
36 36 36 36 37 36 36 36 36 35 35 35 35 35 34 34 35 36 37 37 38 38 37 37 37 37 38 38 37 37 37 37 37 38 39 39 40 39 39 39 40 41 41
37 38 37 38 38 38 37 37 36 36 36 36 36 36 35 35 36 37 38 39 39 39 38 38 38 38 39 39 39 39 39 39 39 39 40 40 40 40 41 41 42 42 42
38 39 39 39 39 39 39 38 38 38 38 38 39 39 39 38 37 38 39 39 40 40 40 40 40 40 40 40 41 41 41 41 41 41 41 42 41 41 41 42 43 44 44
39 39 40 40 40 40 40 41 41 40 40 40 40 40 40 40 40 40 40 40 39 40 40 40 41 41 41 42 43 43 43 43 43 43 43 43 43 43 43 43 44 44 44
40 40 41 41 41 41 41 42 42 42 42 41 42 41 41 41 42 42 41 41 40 40 40 40 40 41 41 42 43 44 44 44 44 45 44 44 44 45 45 45 45 44 44
41 41 42 41 42 42 42 42 42 43 43 43 43 43 42 42 42 42 42 42 42 41 41 40 41 41 41 42 43 44 44 45 45 45 44 44 44 44 45 45 45 45 44
43 42 42 42 43 42 43 43 43 43 43 43 43 43 42 42 42 42 42 43 43 43 42 42 42 43 43 44 44 45 45 45 45 45 45 45 45 45 45 45 45 45 44
43 43 43 43 42 42 42 43 43 43 43 43 43 42 42 42 42 42 42 43 43 43 43 43 43 44 44 45 45 45 45 45 45 45 46 46 46 46 47 47 46 45 46
42 42 43 43 43 43 43 43 42 42 42 42 42 42 42 42 43 43 42 43 43 43 43 44 44 44 45 45 45 45 45 45 46 46 47 48 48 48 48 48 47 47 47
42 43 44 44 44 44 44 43 43 43 42 41 41 41 42 42 43 43 43 43 43 43 43 44 45 45 45 46 46 46 46 46 47 47 48 49 49 50 49 49 48 48 48
44 43 44 44 44 44 44 44 43 43 42 42 41 41 41 42 42 43 43 44 44 44 44 44 45 46 46 46 46 46 47 47 47 48 49 49 49 49 49 49 48 47 47
44 44 44 44 45 45 44 44 44 43 43 42 41 41 41 41 42 42 43 44 44 44 44 44 45 46 46 46 46 46 47 47 48 48 49 48 48 48 48 48 47 47 47
44 44 45 45 44 44 44 44 44 44 44 43 42 42 42 42 42 42 43 44 45 45 44 44 45 45 46 47 47 47 47 46 46 46 46 46 46 46 46 47 47 46 46
44 44 44 44 44 44 44 43 43 44 44 43 43 42 41 42 43 43 44 45 45 45 45 44 44 44 44 45 45 45 45 45 45 44 44 44 45 45 45 46 46 45 45
44 44 43 42 42 42 42 42 42 42 43 43 43 42 43 43 44 44 44 45 45 46 46 45 45 45 45 44 44 44 44 44 43 43 43 43 43 43 43 44 44 44 43
42 42 42 43 42 42 41 42 42 42 43 43 44 43 43 43 44 44 44 45 45 45 45 44 44 44 44 43 43 43 43 43 43 42 42 42 42 42 42 42 42 41 41
42 42 42 43 43 43 42 43 43 43 43 43 44 44 43 43 44 44 45 45 45 45 44 43 42 43 43 43 43 43 42 41 41 41 42 41 41 41 41 41 41 41 41
41 41 41 42 42 43 43 43 43 43 42 42 43 44 43 44 44 44 44 45 45 44 44 43 43 43 43 42 42 42 41 41 40 40 40 40 40 41 41 41 41 40 41
40 40 40 40 41 42 42 43 42 42 42 42 42 42 43 43 44 44 44 44 44 43 43 43 42 42 42 42 42 42 41 40 40 39 39 40 40 40 40 40 40 40 40
38 39 39 39 39 39 40 41 41 41 42 42 41 41 41 42 43 43 43 43 42 42 42 42 41 41 41 41 41 41 39 39 38 38 38 39 39 38 38 39 39 40 40
36 37 37 37 38 38 38 40 40 40 40 41 41 40 40 41 42 42 42 42 41 41 41 41 41 41 40 40 40 39 38 37 36 37 37 37 38 37 38 38 38 38 38
34 34 35 35 36 37 37 38 39 39 39 39 40 40 40 41 41 40 40 40 40 40 40 40 40 39 39 39 39 38 36 36 36 36 36 36 37 37 37 37 36 36 36
33 33 33 34 34 35 35 36 37 38 38 37 38 38 39 39 40 40 39 39 39 39 39 39 38 38 38 38 37 36 35 35 35 35 36 36 35 35 35 35 35 35 34
32 32 32 33 33 34 34 35 36 36 36 36 37 37 37 37 37 37 37 37 36 36 36 36 36 37 36 36 35 35 35 34 35 35 35 35 34 34 33 33 34 33 33
Wind_Direction
265 266 267 268 268 269 270 271 271 271 272 274 274 276 276 276 276 275 275 276 276 276 276 277 277 278 280 282 282 283 282 280 280 281 282 282 282 282 280 281 281 282 282
265 267 268 268 268 268 269 270 271 272 273 274 275 276 277 276 275 275 276 276 276 276 276 276 276 276 278 280 281 281 281 281 281 282 282 282 283 282 282 281 281 281 281
264 267 268 268 268 270 270 270 271 271 272 274 276 277 277 277 276 276 276 276 276 276 275 275 275 276 277 278 279 280 281 281 282 282 283 282 282 281 281 282 282 282 282
264 266 268 268 268 270 270 270 271 273 273 274 276 277 278 277 277 277 276 276 276 276 275 275 275 276 277 278 278 278 280 281 282 284 283 283 282 281 281 282 283 283 283
265 266 268 269 269 269 270 270 272 274 274 274 275 277 278 277 278 278 277 276 276 275 275 275 275 275 276 277 277 278 279 280 282 283 283 284 283 282 282 283 283 284 284
267 267 268 270 271 271 271 272 273 274 274 274 276 278 278 278 277 277 277 277 277 277 276 276 276 276 277 277 277 278 278 280 281 282 283 283 283 282 283 284 284 284 285
268 269 270 270 271 272 272 273 274 274 274 275 276 277 278 278 278 278 278 277 277 278 278 278 278 277 277 278 278 278 279 280 281 281 281 282 283 283 284 284 284 284 284
268 269 270 271 271 272 273 274 274 275 275 276 276 277 277 277 277 277 277 277 277 277 278 278 277 278 278 278 279 279 279 280 280 280 281 282 283 284 285 285 284 283 281
268 270 270 270 271 272 273 274 275 275 276 276 277 278 279 279 278 277 277 277 278 277 277 277 277 278 279 279 279 279 279 278 279 279 281 282 283 284 284 284 284 282 281
267 268 270 270 271 272 272 273 274 275 276 276 277 278 278 279 279 278 277 277 277 277 277 277 277 278 278 278 278 279 279 278 279 279 281 282 283 284 284 284 283 282 282
266 267 268 269 271 272 273 273 274 275 276 276 276 277 278 279 279 278 277 277 278 278 278 277 277 277 277 278 278 278 278 278 279 280 280 282 283 284 284 284 283 282 283
266 267 268 269 270 271 272 272 273 274 275 275 276 277 278 278 279 278 278 277 277 277 277 277 278 278 278 278 278 278 279 279 279 281 282 283 283 284 284 283 283 283 283
266 266 267 268 269 270 271 272 272 273 274 275 276 276 277 278 279 279 279 278 278 278 278 278 279 278 279 279 280 279 279 279 280 281 282 283 283 284 284 283 282 282 283
266 266 267 269 269 269 270 271 272 272 273 273 275 276 277 278 279 280 280 279 278 278 279 279 279 279 279 279 280 281 281 281 281 282 282 283 283 284 283 283 282 283 283
266 267 268 269 269 269 270 270 272 272 272 273 275 276 277 278 278 279 279 279 280 279 279 279 279 279 279 279 279 281 282 282 281 282 282 283 283 283 283 283 282 282 283
267 268 269 269 270 271 271 271 272 272 272 273 274 275 276 277 278 278 278 279 280 280 279 279 279 279 279 279 279 281 282 283 283 283 283 283 284 284 284 283 282 282 282
268 269 269 269 270 270 270 270 271 271 272 273 274 275 276 277 277 278 279 280 280 280 279 279 278 278 278 280 281 282 283 283 283 283 284 284 284 284 284 283 283 283 283
268 269 269 269 269 270 271 271 271 271 271 272 274 275 276 277 277 278 279 280 280 280 279 279 279 278 279 280 281 282 283 284 283 282 283 284 284 284 284 283 283 283 283
268 269 269 269 269 270 271 271 271 271 272 272 273 274 275 277 278 278 279 279 279 279 279 279 279 279 280 281 281 282 283 283 283 283 283 283 283 283 284 283 283 283 283
268 269 269 269 270 271 271 272 272 273 273 273 273 275 276 276 277 277 278 279 279 279 280 280 279 280 280 281 281 282 282 282 283 284 284 284 283 283 283 283 284 285 284
268 268 269 270 271 271 272 272 272 273 274 274 274 275 276 276 276 277 278 279 279 279 280 280 279 279 280 280 281 281 281 281 281 283 284 284 284 284 285 284 285 286 286
267 268 269 270 271 272 273 272 273 274 274 274 275 276 276 276 276 277 279 279 279 279 280 280 280 280 281 281 281 281 280 280 280 281 283 284 285 286 286 286 287 287 287
267 268 270 271 272 272 273 274 274 275 275 275 275 275 276 277 277 278 279 278 278 279 279 279 280 281 281 281 281 280 280 280 280 281 283 284 285 287 288 289 289 289 288
268 269 270 271 272 273 274 275 275 276 276 276 277 277 277 277 278 279 279 279 279 279 279 279 280 281 280 280 280 280 279 279 280 282 283 285 286 288 289 290 290 291 290
270 271 272 272 273 274 274 274 275 276 276 276 277 278 279 279 279 280 280 280 278 278 279 279 279 280 280 280 279 279 278 279 280 282 284 286 288 290 290 291 291 291 290
270 271 272 273 274 275 275 274 275 275 275 276 277 278 279 279 279 279 280 279 279 279 279 280 280 280 281 281 279 278 278 279 281 282 284 287 289 291 291 290 291 291 290
Height
5788 5788 5789 5790 5790 5791 5791 5791 5791 5791 5791 5791 5791 5791 5790 5790 5790 5789 5788 5788 5788 5787 5786 5786 5785 5785 5784 5783 5782 5781 5780 5779 5778 5777 5776 5775 5774 5773 5771 5770 5768 5767 5766
5780 5780 5781 5782 5782 5783 5783 5783 5784 5784 5784 5784 5783 5783 5782 5782 5782 5781 5781 5780 5780 5779 5778 5778 5777 5776 5776 5775 5774 5773 5772 5771 5770 5769 5768 5767 5765 5764 5762 5761 5760 5758 5756
5772 5773 5773 5774 5774 5774 5775 5775 5776 5776 5776 5776 5776 5775 5774 5774 5773 5772 5772 5771 5771 5770 5769 5769 5769 5768 5767 5767 5766 5765 5764 5763 5762 5760 5759 5757 5756 5755 5753 5752 5750 5748 5746
5764 5765 5765 5766 5766 5766 5767 5767 5767 5768 5768 5768 5767 5767 5766 5765 5764 5764 5763 5762 5762 5761 5760 5760 5759 5759 5758 5758 5757 5756 5755 5754 5753 5751 5750 5748 5747 5745 5744 5742 5740 5738 5736
5756 5757 5757 5757 5758 5758 5758 5758 5759 5759 5759 5759 5759 5758 5757 5757 5756 5755 5754 5753 5752 5752 5751 5750 5750 5749 5749 5748 5747 5746 5746 5745 5743 5742 5740 5739 5737 5736 5734 5732 5730 5728 5726
5747 5748 5748 5748 5748 5749 5749 5749 5750 5750 5750 5749 5749 5749 5748 5747 5746 5745 5744 5744 5743 5742 5742 5741 5740 5740 5739 5738 5737 5736 5736 5735 5733 5732 5731 5729 5727 5726 5724 5722 5720 5717 5715
5738 5738 5739 5739 5739 5739 5739 5739 5740 5740 5740 5740 5740 5739 5738 5737 5736 5735 5735 5734 5734 5733 5732 5731 5730 5730 5729 5728 5727 5726 5725 5724 5723 5722 5720 5719 5717 5715 5713 5711 5709 5706 5704
5728 5729 5729 5729 5729 5730 5730 5730 5730 5730 5729 5729 5729 5729 5729 5729 5727 5726 5725 5724 5724 5723 5722 5721 5721 5720 5719 5718 5717 5715 5714 5713 5712 5711 5709 5708 5706 5704 5702 5699 5697 5695 5693
5718 5718 5719 5719 5719 5719 5719 5719 5719 5719 5719 5719 5718 5718 5718 5717 5717 5716 5715 5714 5714 5713 5712 5711 5710 5709 5708 5707 5706 5705 5703 5702 5701 5700 5698 5696 5694 5692 5690 5688 5685 5683 5681
5707 5708 5708 5709 5709 5709 5709 5709 5709 5709 5708 5708 5708 5707 5707 5706 5706 5705 5705 5704 5703 5703 5702 5701 5700 5699 5697 5696 5695 5693 5692 5691 5690 5688 5687 5685 5683 5681 5678 5676 5674 5672 5670
5697 5697 5698 5698 5698 5699 5699 5699 5698 5698 5698 5698 5697 5697 5696 5695 5694 5694 5694 5694 5693 5692 5691 5690 5689 5688 5686 5685 5683 5682 5681 5680 5678 5677 5675 5673 5670 5668 5666 5664 5662 5660 5658
5686 5686 5687 5687 5688 5688 5688 5688 5688 5687 5687 5687 5687 5686 5685 5685 5684 5683 5683 5683 5682 5681 5680 5679 5677 5676 5675 5673 5672 5670 5669 5668 5666 5665 5663 5660 5658 5656 5653 5651 5649 5647 5645
5674 5675 5676 5676 5676 5677 5677 5677 5676 5676 5676 5676 5676 5675 5675 5674 5673 5672 5672 5671 5671 5670 5669 5667 5666 5665 5663 5662 5660 5659 5657 5656 5654 5652 5650 5648 5645 5643 5641 5639 5637 5635 5633
5663 5663 5664 5664 5665 5665 5665 5665 5665 5665 5665 5665 5665 5665 5664 5663 5662 5661 5660 5660 5659 5659 5658 5656 5654 5653 5651 5650 5648 5647 5645 5643 5641 5640 5637 5635 5633 5631 5629 5626 5624 5622 5620
5651 5652 5652 5653 5653 5654 5654 5654 5654 5654 5654 5654 5654 5654 5653 5652 5651 5650 5649 5648 5647 5646 5646 5645 5643 5641 5639 5637 5636 5634 5632 5630 5628 5627 5625 5623 5621 5619 5617 5614 5612 5610 5608
5640 5640 5641 5642 5642 5642 5642 5642 5643 5643 5643 5643 5643 5642 5642 5641 5640 5639 5637 5636 5635 5634 5633 5633 5631 5629 5627 5625 5624 5622 5620 5618 5616 5614 5613 5611 5609 5607 5605 5602 5600 5598 5596
5628 5629 5629 5630 5630 5630 5630 5631 5631 5631 5631 5632 5631 5631 5630 5629 5628 5627 5626 5624 5623 5621 5621 5620 5618 5617 5615 5613 5612 5610 5608 5607 5605 5603 5601 5599 5597 5595 5593 5590 5588 5586 5584
5617 5618 5618 5618 5619 5619 5619 5619 5619 5619 5619 5620 5619 5619 5618 5617 5617 5615 5614 5612 5611 5609 5608 5608 5606 5604 5603 5602 5600 5599 5597 5595 5593 5591 5589 5587 5585 5583 5581 5579 5577 5575 5573
5606 5606 5606 5607 5607 5607 5607 5607 5607 5607 5607 5608 5607 5607 5606 5605 5605 5603 5602 5600 5598 5597 5596 5596 5595 5593 5592 5590 5589 5587 5586 5584 5582 5580 5578 5576 5574 5572 5570 5567 5565 5563 5561
5594 5595 5595 5595 5596 5596 5596 5596 5596 5596 5595 5595 5595 5595 5594 5593 5592 5591 5590 5588 5587 5586 5584 5584 5583 5582 5580 5578 5577 5576 5574 5573 5571 5569 5567 5565 5562 5560 5558 5556 5554 5552 5549
5583 5583 5584 5584 5584 5584 5584 5584 5584 5584 5584 5583 5583 5582 5582 5581 5580 5579 5577 5576 5575 5574 5573 5572 5571 5569 5568 5567 5565 5564 5562 5561 5559 5558 5556 5554 5552 5550 5547 5545 5542 5540 5537
5573 5573 5573 5573 5573 5573 5573 5572 5572 5572 5572 5572 5571 5571 5570 5569 5568 5567 5565 5564 5563 5562 5561 5560 5559 5558 5556 5554 5553 5552 5551 5550 5549 5548 5546 5543 5541 5539 5536 5534 5531 5529 5526
5562 5563 5563 5563 5563 5563 5562 5562 5561 5561 5561 5560 5559 5559 5558 5557 5556 5555 5554 5553 5551 5550 5549 5548 5547 5546 5545 5543 5542 5541 5539 5538 5538 5536 5535 5533 5530 5528 5526 5523 5521 5518 5516
5553 5553 5553 5553 5553 5552 5551 5551 5550 5550 5550 5549 5549 5548 5547 5546 5544 5543 5542 5541 5540 5539 5538 5537 5536 5535 5533 5531 5530 5529 5528 5528 5527 5526 5524 5523 5520 5518 5516 5513 5510 5508 5505
5544 5544 5544 5543 5543 5542 5541 5541 5540 5539 5539 5539 5538 5537 5536 5535 5533 5532 5532 5531 5530 5528 5526 5525 5524 5523 5521 5520 5519 5518 5518 5517 5517 5516 5514 5512 5511 5508 5506 5503 5500 5497 5495
5535 5535 5534 5534 5533 5533 5532 5531 5530 5530 5529 5529 5528 5527 5525 5524 5522 5521 5520 5519 5518 5517 5516 5514 5513 5512 5511 5509 5508 5507 5507 5507 5506 5506 5504 5502 5500 5498 5496 5494 5491 5488 5485